[[{"header":{"parameterUnit":"m.s-1","parameterCategory":1,"la1":30.2992,"la2":30.254,"lo1":-89.0895,"lo2":-89.0443,"dy":0.0025,"dx":0.0025,"nx":19,"ny":19,"refTime":"2026-04-09T21:00:00:Z","depth":0,"parameterNumber":2,"parameterNumberName":"U-component_of_WINDS"},"data":[0,0,0,-4.0982,-4.0983,-4.0979,-4.0979,-4.1019,-4.1019,0,0,0,0,0,0,0,0,0,0,0,-4.1008,-4.1009,-4.0982,-4.0983,-4.0979,-4.0979,-4.1019,-4.1019,0,0,0,0,0,0,0,0,0,0,0,-4.1007,-4.1008,-4.101,-4.0983,-4.0979,-4.0979,-4.1018,-4.1006,0,0,0,0,0,0,0,0,0,0,-4.1002,-4.1048,-4.1008,-4.101,-4.0983,-4.098,-4.0979,-4.1004,-4.1007,-4.1038,0,-4.1071,0,-4.1046,-4.1025,-4.1025,0,0,0,-4.0965,-4.1047,-4.1024,-4.101,-4.0983,-4.098,-4.0976,-4.1005,-4.1008,-4.1041,-4.1071,-4.1072,-4.1047,-4.1025,-4.1026,-4.1265,-4.1267,0,0,-4.0965,-4.102,-4.1022,-4.1027,-4.1028,-4.0976,-4.0976,-4.1006,-4.1043,-4.1071,-4.1072,-4.1048,-4.1026,-4.1026,-4.1263,-4.1265,0,0,0,-4.0977,-4.1022,-4.0996,-4.1026,-4.1022,-4.0976,-4.0976,-4.1042,-4.1029,-4.1072,-4.1048,-4.1026,-4.1027,-4.1261,-4.1264,-4.1414,0,0,0,-4.0977,-4.1028,-4.0998,-4.1032,-4.1022,-4.1031,-4.1012,-4.1027,-4.1028,-4.1048,-4.1026,-4.1028,-4.1258,-4.1262,-4.1405,-4.1475,0,0,0,-4.0999,-4.1031,-4.1039,-4.1035,-4.1035,-4.103,-4.1018,-4.1026,-4.1015,-4.1025,-4.1028,-4.1257,-4.1262,-4.1397,-4.1462,-4.1554,0,0,0,-4.104,-4.1172,-4.1042,-4.1181,-4.1035,-4.1122,-4.1017,-4.1079,-4.1106,-4.1027,-4.1259,-4.1263,-4.1394,-4.1454,-4.1546,-4.1642,-4.1687,0,0,-4.1238,-4.1198,-4.1275,-4.1159,-4.1283,-4.1118,-4.1265,-4.1237,-4.1188,-4.1243,-4.1248,-4.1408,-4.1461,-4.1553,-4.1921,-4.1957,0,0,0,-4.1357,-4.1413,-4.1434,-4.1461,-4.1443,-4.1434,-4.1378,-4.1368,-4.1412,-4.1227,-4.1464,-4.1494,-4.1546,-4.1589,-4.162,-4.1661,-4.1286,-4.1285,-4.1285,-4.1716,-4.1646,-4.177,-4.17,-4.1729,-4.167,-4.1687,-4.1664,-4.1585,-4.1643,-4.1658,-4.189,-4.1943,-4.1965,-4.2009,-4.1703,-4.1704,-4.1704,-4.1705,-4.2,-4.2069,-4.1961,-4.2042,-4.1968,-4.2036,-4.1987,-4.1929,-4.1983,-4.1872,-4.1914,-4.1799,-4.2007,-4.2042,-4.1715,-4.1714,-4.1712,-4.1711,-4.171,-4.2227,-4.2248,-4.2233,-4.2266,-4.2301,-4.2226,-4.2283,-4.2214,-4.2149,-4.2191,-4.22,-4.2197,-4.2186,-4.22,-4.2201,-4.2202,-4.2202,-4.2203,-4.2204,-4.2468,-4.2447,-4.2502,-4.2495,-4.2505,-4.2508,-4.2453,-4.2461,-4.2452,-4.2397,-4.2397,-4.2314,-4.204,-4.1973,-4.2216,-4.2214,-4.2212,-4.2211,-4.221,-4.2781,-4.2699,-4.2785,-4.2795,-4.2781,-4.2821,-4.2732,-4.2755,-4.2752,-4.2783,-4.2691,-4.25,-4.2454,-4.2429,-4.2373,-4.2705,-4.2705,-4.2705,-4.2705,-4.2972,-4.2942,-4.3015,-4.3035,-4.3047,-4.2976,-4.3078,-4.3037,-4.2983,-4.2977,-4.2919,-4.2839,-4.2817,-4.2784,-4.2752,-4.2698,-4.3105,-4.3106,-4.3106,-4.3161,-4.3129,-4.3228,-4.3172,-4.3157,-4.3147,-4.3241,-4.3271,-4.3192,-4.3121,-4.2971,-4.2954,-4.2824,-4.2785,-4.271,-4.2661,-4.2561,0,0]},{"header":{"parameterUnit":"m.s-1","parameterCategory":1,"la1":30.2992,"la2":30.254,"lo1":-89.0895,"lo2":-89.0443,"dy":0.0025,"dx":0.0025,"nx":19,"ny":19,"refTime":"2026-04-09T21:00:00:Z","depth":0,"parameterNumber":3,"parameterNumberName":"V-component_of_WINDS"},"data":[0,0,0,1.856,1.8561,1.8615,1.8615,1.8666,1.8666,0,0,0,0,0,0,0,0,0,0,0,1.8534,1.8534,1.856,1.8561,1.8615,1.8615,1.8666,1.8666,0,0,0,0,0,0,0,0,0,0,0,1.8534,1.8534,1.8534,1.8561,1.8615,1.8615,1.8666,1.8631,0,0,0,0,0,0,0,0,0,0,1.8581,1.8548,1.8534,1.8534,1.8561,1.8615,1.8615,1.863,1.8633,1.8633,0,1.8632,0,1.865,1.8668,1.8668,0,0,0,1.8568,1.8545,1.8569,1.8534,1.8562,1.8615,1.8593,1.8632,1.8636,1.8638,1.8633,1.8635,1.8651,1.8668,1.8669,1.8651,1.865,0,0,1.8565,1.8537,1.8566,1.8571,1.8563,1.8591,1.8594,1.8634,1.8627,1.8633,1.8637,1.8652,1.8669,1.8669,1.8651,1.865,0,0,0,1.8552,1.8535,1.8559,1.8568,1.858,1.8592,1.8596,1.8625,1.8635,1.8638,1.8652,1.8669,1.8669,1.8652,1.8651,1.8604,0,0,0,1.855,1.8527,1.8557,1.854,1.8578,1.8603,1.8585,1.8632,1.8638,1.8652,1.8669,1.867,1.8652,1.8651,1.8606,1.8585,0,0,0,1.8533,1.8525,1.853,1.8539,1.8561,1.8603,1.8616,1.8634,1.8646,1.8668,1.867,1.8652,1.8651,1.8608,1.8589,1.8573,0,0,0,1.8507,1.8486,1.8529,1.8511,1.8561,1.8574,1.8616,1.8627,1.8641,1.8669,1.8652,1.8651,1.8609,1.8591,1.8575,1.8553,1.8542,0,0,1.8465,1.848,1.8472,1.8512,1.8511,1.8568,1.8561,1.8598,1.8624,1.864,1.864,1.8605,1.8589,1.8573,1.8491,1.8482,0,0,0,1.8449,1.8443,1.8449,1.8462,1.8491,1.8515,1.8557,1.8571,1.8586,1.8627,1.8597,1.8588,1.8579,1.857,1.8562,1.8557,1.8646,1.8646,1.8646,1.8349,1.8386,1.8375,1.8419,1.843,1.8475,1.8488,1.8514,1.8546,1.8539,1.8543,1.8489,1.8477,1.8471,1.8465,1.8535,1.8535,1.8535,1.8535,1.829,1.8287,1.8333,1.8339,1.8377,1.8382,1.8425,1.8448,1.8457,1.8488,1.8483,1.8512,1.846,1.8457,1.8532,1.8532,1.8533,1.8533,1.8533,1.8227,1.8232,1.8252,1.8275,1.8288,1.8333,1.834,1.8375,1.8408,1.8403,1.8411,1.8412,1.8416,1.8405,1.8404,1.8404,1.8404,1.8404,1.8404,1.8154,1.8178,1.818,1.8212,1.8225,1.8247,1.8293,1.8306,1.833,1.8355,1.8355,1.8387,1.8449,1.8463,1.8401,1.8401,1.8402,1.8402,1.8402,1.8078,1.8102,1.8106,1.8119,1.8159,1.817,1.8216,1.8241,1.8257,1.826,1.8295,1.8335,1.8352,1.8358,1.837,1.8287,1.8287,1.8287,1.8287,1.8025,1.8038,1.8051,1.807,1.8093,1.8135,1.8138,1.8173,1.8214,1.8226,1.8243,1.8263,1.8268,1.8282,1.829,1.8301,1.8203,1.8203,1.8203,1.798,1.7997,1.7993,1.8035,1.8069,1.8097,1.81,1.812,1.817,1.82,1.8236,1.824,1.8271,1.828,1.8308,1.8319,1.8341,0,0]}]]